This is the latest recevied weather packets stored in our database for station/object PY2FLB-13. If no packets are shown the sender has not sent any weather packets the latest 10 day(s).
| Time | Temp. | Humidity | Pressure | Rain* | Wind** | Luminosity | Snow |
|---|---|---|---|---|---|---|---|
| 1777749734 | 30.56° C | 35% | 1013.5 hPa | - | - | - | - |
| 1777749434 | 30.56° C | 34% | 1013.5 hPa | - | - | - | - |
| 1777749133 | 30.56° C | 34% | 1013.4 hPa | - | - | - | - |
| 1777748534 | 30.56° C | 35% | 1013.4 hPa | - | - | - | - |
| 1777748234 | 30.56° C | 36% | 1013.4 hPa | - | - | - | - |
| 1777747935 | 31.11° C | 35% | 1013.3 hPa | - | - | - | - |
| 1777747634 | 31.11° C | 35% | 1013.3 hPa | - | - | - | - |
| 1777747333 | 30.56° C | 35% | 1013.4 hPa | - | - | - | - |
| 1777747034 | 31.11° C | 35% | 1013.4 hPa | - | - | - | - |
| 1777746734 | 30.56° C | 35% | 1013.4 hPa | - | - | - | - |
| 1777746433 | 31.11° C | 34% | 1013.5 hPa | - | - | - | - |
| 1777746133 | 30° C | 36% | 1013.6 hPa | - | - | - | - |
| 1777745833 | 30.56° C | 36% | 1013.6 hPa | - | - | - | - |
| 1777745533 | 30° C | 37% | 1013.7 hPa | - | - | - | - |
| 1777745234 | 30.56° C | 36% | 1013.7 hPa | - | - | - | - |
| 1777744933 | 30.56° C | 36% | 1013.7 hPa | - | - | - | - |
| 1777744634 | 30.56° C | 36% | 1013.7 hPa | - | - | - | - |
| 1777744334 | 31.11° C | 36% | 1013.8 hPa | - | - | - | - |
| 1777744033 | 30.56° C | 36% | 1013.8 hPa | - | - | - | - |
| 1777743734 | 30° C | 37% | 1014.1 hPa | - | - | - | - |
| 1777743433 | 30.56° C | 37% | 1014.1 hPa | - | - | - | - |
| 1777743134 | 30° C | 37% | 1014.3 hPa | - | - | - | - |
| 1777742833 | 30.56° C | 36% | 1014.2 hPa | - | - | - | - |
| 1777742533 | 30.56° C | 36% | 1014.2 hPa | - | - | - | - |
| 1777742233 | 30° C | 37% | 1014.2 hPa | - | - | - | - |
* Rain since midnight (hover to see other rain measurements)
** Current wind speed in m/s (hover to see current wind gust speed)